Tracking 30970 objects as of 3-Jul-2025
HD Live streaming from Space Station
objects crossing your sky now

COSMOS 2251 DEB

Track COSMOS 2251 DEB now!
10-day predictions


NORAD ID: 36622
Int'l Code: 1993-036BEL
Perigee: 603.7 km
Apogee: 704.6 km
Inclination: 74.0 °
Period: 97.7 minutes
Semi major axis: 7025 km
RCS: 0.0002 m2 (small)
Launch date: June 16, 1993
Source: Commonwealth of Independent States (former USSR) (CIS)
Launch site: PLESETSK MISSILE AND SPACE COMPLEX (PKMTR)

Note: This is SATELLITE DEBRIS
Your satellite tracking list
ARIANE 42P DEB
Track 1 satellite(s)




NASA's NSSDC Master Catalog

Two Line Element Set (TLE):
1 36622U 93036BEL 25183.05427941  .00002539  00000-0  37225-3 0  9992
2 36622  74.0148 105.8871 0071829 281.5683  77.7433 14.74406712643364
Source of the keplerian elements: AFSPC